W5COG Weather Reports


Display with metric or nautical units.
time (UTC)temp
F
wind
direction
speed
MPH
gust
MPH
rain 1hr
in
rain 24hr
in
rain mn
in
humidity
%
barometer
mb
20260510115529 60 290 0.0 0.0 0.00 0.00 0.00 82 1014.6
20260510115029 59 326 0.0 1.0 0.00 0.00 0.00 84 1014.5
20260510114529 59 65 0.0 2.0 0.00 0.00 0.00 85 1014.3
20260510114029 59 176 0.0 1.0 0.00 0.00 0.00 84 1014.2
20260510113529 59 191 0.0 0.0 0.00 0.00 0.00 84 1013.9
20260510113029 59 239 0.0 1.0 0.00 0.00 0.00 84 1013.8
20260510112529 59 312 0.0 1.0 0.00 0.00 0.00 85 1013.8
20260510112029 59 84 0.0 0.0 0.00 0.00 0.00 85 1013.6
20260510111529 59 63 0.0 1.0 0.00 0.00 0.00 85 1013.4
20260510111029 60 40 0.0 1.0 0.00 0.00 0.00 83 1013.4
20260510105529 60 311 0.0 0.0 0.00 0.00 0.00 83 1013.3
20260510105029 60 345 0.0 1.0 0.00 0.00 0.00 83 1013.2
20260510104529 60 58 0.0 1.0 0.00 0.00 0.00 84 1012.8
20260510104029 60 77 0.0 1.0 0.00 0.00 0.00 84 1012.7
20260510103529 60 92 1.0 2.0 0.00 0.00 0.00 84 1012.7
20260510103029 60 51 1.0 2.0 0.00 0.00 0.00 85 1012.7
20260510102529 60 78 1.0 4.0 0.00 0.00 0.00 84 1012.7
20260510102029 61 75 1.0 3.0 0.00 0.00 0.00 84 1012.8
20260510101529 61 75 0.0 1.0 0.00 0.00 0.00 84 1012.8
20260510101029 61 90 0.0 2.0 0.00 0.00 0.00 83 1012.7
20260510095529 61 78 1.0 3.0 0.00 0.00 0.00 81 1012.4
20260510095029 62 83 1.0 2.0 0.00 0.00 0.00 80 1012.3
20260510094532 62 63 0.0 1.0 0.00 0.00 0.00 79 1012.3
20260510094029 62 56 0.0 3.0 0.00 0.00 0.00 78 1012.3
20260510093529 62 97 1.0 2.0 0.00 0.00 0.00 77 1012.3
20260510093029 62 356 0.0 2.0 0.00 0.00 0.00 76 1012.3
20260510092529 62 345 0.0 0.0 0.00 0.00 0.00 76 1012.3
20260510092029 62 19 0.0 0.0 0.00 0.00 0.00 76 1012.1
20260510091529 62 249 0.0 0.0 0.00 0.00 0.00 76 1012.1
20260510091029 62 233 0.0 0.0 0.00 0.00 0.00 76 1011.9
20260510090529 63 64 0.0 1.0 0.00 0.00 0.00 76 1011.9
20260510090029 63 77 0.0 1.0 0.00 0.00 0.00 76 1011.9
20260510085529 63 323 0.0 1.0 0.00 0.00 0.00 75 1011.9
20260510085029 63 319 0.0 0.0 0.00 0.00 0.00 73 1011.8
20260510084529 63 311 0.0 0.0 0.00 0.00 0.00 73 1011.6
20260510084029 63 296 0.0 1.0 0.00 0.00 0.00 73 1011.5
20260510083529 63 323 0.0 1.0 0.00 0.00 0.00 72 1011.3
20260510083029 63 352 0.0 1.0 0.00 0.00 0.00 71 1011.2
20260510082529 64 39 0.0 1.0 0.00 0.00 0.00 71 1011.0
20260510082029 64 255 0.0 1.0 0.00 0.00 0.00 70 1010.8
20260510081529 64 65 1.0 4.0 0.00 0.00 0.00 69 1010.7
20260510081029 64 58 1.0 3.0 0.00 0.00 0.00 67 1010.5
20260510080529 65 275 0.0 1.0 0.00 0.00 0.00 66 1010.6
20260510075029 64 334 0.0 2.0 0.00 0.00 0.00 69 1010.6
20260510074529 65 329 2.0 4.0 0.00 0.00 0.00 69 1010.7
20260510074029 65 357 2.0 8.0 0.00 0.00 0.00 68 1010.7
20260510073529 65 330 2.0 5.0 0.00 0.00 0.00 66 1010.6
20260510073029 66 21 1.0 2.0 0.00 0.00 0.00 64 1010.4
20260510072529 66 322 3.0 7.0 0.00 0.00 0.00 60 1010.2
20260510072029 66 232 5.0 12.0 0.00 0.00 0.00 59 1009.6
20260510071529 66 137 5.0 11.0 0.00 0.00 0.00 60 1009.0
20260510071029 66 153 4.0 8.0 0.00 0.00 0.00 62 1009.2
20260510070529 66 159 5.0 9.0 0.00 0.00 0.00 61 1008.9
20260510070029 66 153 4.0 10.0 0.00 0.00 0.00 61 1010.0
20260510065529 67 173 5.0 10.0 0.00 0.00 0.00 60 1011.2
20260510065029 66 197 3.0 7.0 0.00 0.00 0.00 61 1011.2
20260510064529 66 211 2.0 4.0 0.00 0.00 0.00 63 1010.8
20260510064029 66 204 1.0 6.0 0.00 0.00 0.00 61 1010.7
20260510063529 66 185 6.0 11.0 0.00 0.00 0.00 62 1010.0
20260510063029 66 175 5.0 11.0 0.00 0.00 0.00 61 1009.8
20260510062529 66 177 8.0 14.0 0.00 0.00 0.00 62 1010.1
20260510062029 66 184 9.0 15.0 0.00 0.00 0.00 62 1011.2
20260510061529 67 202 8.0 16.0 0.00 0.00 0.00 61 1012.6
20260510061029 67 207 4.0 9.0 0.00 0.00 0.00 61 1013.6
20260510060529 67 206 4.0 8.0 0.00 0.00 0.00 61 1014.0
20260510055029 68 272 1.0 3.0 0.00 0.00 0.00 59 1013.5
20260510054529 69 259 1.0 2.0 0.00 0.00 0.00 55 1013.4
20260510054029 68 135 0.0 2.0 0.00 0.00 0.00 56 1013.3
20260510053529 68 298 1.0 4.0 0.00 0.00 0.00 58 1013.3
20260510052529 67 317 1.0 7.0 0.00 0.00 0.00 67 1013.2
20260510052029 67 55 2.0 3.0 0.00 0.00 0.00 67 1013.1
20260510051529 68 79 2.0 3.0 0.00 0.00 0.00 65 1013.3
20260510051029 68 49 1.0 2.0 0.00 0.00 0.00 61 1013.5
20260510050529 68 74 0.0 2.0 0.00 0.00 0.00 60 1013.5
20260510050029 68 352 1.0 4.0 0.00 0.00 0.00 60 1013.5
20260510045529 68 337 0.0 2.0 0.00 0.00 0.00 61 1013.6
20260510045029 67 303 2.0 4.0 0.00 0.00 0.00 62 1013.5
20260510044529 67 290 2.0 7.0 0.00 0.00 0.00 64 1013.5
20260510044029 66 295 2.0 4.0 0.00 0.00 0.00 67 1013.3
20260510043529 66 294 1.0 3.0 0.00 0.00 0.00 66 1013.2
20260510043029 66 292 2.0 4.0 0.00 0.00 0.00 64 1013.1
20260510042529 67 310 1.0 3.0 0.00 0.00 0.00 62 1012.7
20260510042029 67 344 0.0 0.0 0.00 0.00 0.00 62 1012.3
20260510041529 67 94 0.0 2.0 0.00 0.00 0.00 60 1012.0
20260510041029 67 76 1.0 3.0 0.00 0.00 0.00 59 1011.7
20260510040529 67 66 1.0 3.0 0.00 0.00 0.00 57 1011.5
20260510040029 67 94 1.0 2.0 0.00 0.00 0.00 58 1011.4
20260510035529 67 104 1.0 2.0 0.00 0.00 0.00 58 1011.3
20260510035029 67 105 2.0 3.0 0.00 0.00 0.00 59 1011.2
20260510034529 67 110 2.0 3.0 0.00 0.00 0.00 60 1011.2
20260510034029 67 104 2.0 3.0 0.00 0.00 0.00 61 1011.1
20260510033529 67 96 3.0 5.0 0.00 0.00 0.00 61 1011.0
20260510033029 67 91 3.0 4.0 0.00 0.00 0.00 62 1011.0
20260510032529 67 96 3.0 4.0 0.00 0.00 0.00 64 1011.1
20260510032029 67 93 2.0 3.0 0.00 0.00 0.00 66 1011.1
20260510031529 67 85 1.0 2.0 0.00 0.00 0.00 68 1011.2
20260510031029 67 60 0.0 1.0 0.00 0.00 0.00 68 1011.2
20260510030529 67 82 1.0 2.0 0.00 0.00 0.00 66 1011.1
20260510030029 67 84 1.0 2.0 0.00 0.00 0.00 64 1011.1
20260510025529 67 81 1.0 2.0 0.00 0.00 0.00 63 1011.1
20260510025029 67 183 0.0 0.0 0.00 0.00 0.00 61 1011.2
20260510024529 67 184 0.0 0.0 0.00 0.00 0.00 61 1011.1
20260510024029 67 184 0.0 0.0 0.00 0.00 0.00 61 1010.9
20260510023529 67 239 0.0 0.0 0.00 0.00 0.00 61 1010.7
20260510023029 68 328 0.0 0.0 0.00 0.00 0.00 61 1010.5
20260510022529 68 328 0.0 0.0 0.00 0.00 0.00 60 1010.3
20260510022029 68 345 0.0 0.0 0.00 0.00 0.00 58 1010.1
20260510021529 68 47 0.0 0.0 0.00 0.00 0.00 56 1009.9
20260510021029 68 85 0.0 0.0 0.00 0.00 0.00 55 1009.6
20260510020529 69 86 0.0 0.0 0.00 0.00 0.00 55 1009.4
20260510015029 70 103 0.0 3.0 0.00 0.00 0.00 54 1009.1
20260510014529 70 121 0.0 0.0 0.00 0.00 0.00 53 1009.1
20260510014029 71 119 0.0 1.0 0.00 0.00 0.00 52 1009.1
20260510013529 71 128 0.0 1.0 0.00 0.00 0.00 51 1008.9
20260510013029 71 112 0.0 1.0 0.00 0.00 0.00 50 1008.8
20260510012529 72 126 0.0 1.0 0.00 0.00 0.00 50 1008.7
20260510012029 72 126 0.0 0.0 0.00 0.00 0.00 50 1008.6
20260510011529 73 123 0.0 0.0 0.00 0.00 0.00 49 1008.5
20260510011029 73 132 0.0 0.0 0.00 0.00 0.00 48 1008.5
20260510010529 74 124 0.0 1.0 0.00 0.00 0.00 47 1008.4
20260510010029 74 116 0.0 1.0 0.00 0.00 0.00 47 1008.4
20260510005530 75 117 0.0 1.0 0.00 0.00 0.00 46 1008.4
20260510005029 75 129 0.0 3.0 0.00 0.00 0.00 45 1008.4
20260510004529 75 141 0.0 4.0 0.00 0.00 0.00 45 1008.3
20260510004029 76 126 0.0 2.0 0.00 0.00 0.00 44 1008.3
20260510003529 76 119 1.0 3.0 0.00 0.00 0.00 43 1008.3
20260510003029 76 108 0.0 3.0 0.00 0.00 0.00 42 1008.2
20260510002529 76 137 1.0 2.0 0.00 0.00 0.00 41 1008.2
20260510002029 77 144 0.0 2.0 0.00 0.00 0.00 40 1008.2
20260510001529 77 143 1.0 3.0 0.00 0.00 0.00 38 1008.2
20260510001029 77 142 1.0 4.0 0.00 0.00 0.00 37 1008.2
20260510000529 78 127 1.0 4.0 0.00 0.00 0.00 36 1008.3
20260510000029 78 127 1.0 4.0 0.00 0.01 0.00 35 1008.3
20260509235529 78 149 2.0 4.0 0.00 0.01 0.00 34 1008.3
20260509235029 79 132 3.0 8.0 0.00 0.01 0.00 33 1008.3
20260509234529 79 117 2.0 6.0 0.00 0.03 0.00 36 1008.3
20260509234029 79 145 3.0 5.0 0.00 0.06 0.00 35 1008.3
20260509233529 79 130 3.0 6.0 0.00 0.15 0.00 35 1008.3
20260509233029 79 125 2.0 8.0 0.00 0.15 0.00 34 1008.4
20260509232529 80 123 3.0 8.0 0.00 0.15 0.00 33 1008.4
20260509232029 80 119 4.0 7.0 0.00 0.15 0.00 32 1008.5
20260509231529 80 135 3.0 8.0 0.00 0.15 0.00 32 1008.4
20260509231029 80 140 3.0 8.0 0.00 0.15 0.00 33 1008.4
20260509230529 80 137 2.0 4.0 0.00 0.15 0.00 33 1008.4
20260509230029 81 144 3.0 7.0 0.00 0.15 0.00 32 1008.5
20260509225529 81 129 3.0 9.0 0.00 0.15 0.00 32 1008.5
20260509225029 81 113 4.0 8.0 0.00 0.15 0.00 31 1008.5
20260509224529 81 149 3.0 5.0 0.00 0.15 0.00 30 1008.5
20260509224029 81 91 4.0 9.0 0.00 0.15 0.00 30 1008.5
20260509223529 81 118 3.0 6.0 0.00 0.15 0.00 30 1008.6
20260509223029 81 118 3.0 7.0 0.00 0.15 0.00 28 1008.6
20260509222529 81 108 4.0 8.0 0.00 0.15 0.00 27 1008.5
20260509222029 82 101 5.0 8.0 0.00 0.15 0.00 28 1008.5
20260509221529 82 132 3.0 7.0 0.00 0.15 0.00 30 1008.7
20260509221029 82 135 3.0 8.0 0.00 0.15 0.00 30 1008.8
20260509220529 82 140 3.0 8.0 0.00 0.15 0.00 31 1008.7
20260509220029 82 124 3.0 7.0 0.00 0.15 0.00 30 1008.6
20260509215529 83 105 3.0 8.0 0.00 0.15 0.00 30 1008.6
20260509215029 83 120 3.0 7.0 0.00 0.15 0.00 29 1008.7
20260509214529 83 131 3.0 6.0 0.00 0.15 0.00 27 1008.8
20260509214029 83 111 4.0 8.0 0.00 0.15 0.00 28 1008.8
20260509213529 83 128 3.0 5.0 0.00 0.15 0.00 29 1008.8
20260509213029 83 148 3.0 6.0 0.00 0.15 0.00 30 1008.8
20260509212529 82 112 3.0 8.0 0.00 0.15 0.00 29 1008.9
20260509212029 82 99 4.0 8.0 0.00 0.15 0.00 30 1009.0
20260509211529 82 114 4.0 8.0 0.00 0.15 0.00 30 1009.1
20260509211029 83 113 4.0 7.0 0.00 0.15 0.00 30 1009.2
20260509210529 83 109 3.0 9.0 0.00 0.15 0.00 31 1009.2
20260509210029 83 95 4.0 8.0 0.00 0.15 0.00 30 1009.3
20260509205529 83 104 3.0 6.0 0.00 0.15 0.00 28 1009.4
20260509205029 83 121 3.0 5.0 0.00 0.15 0.00 26 1009.6
20260509204529 83 91 4.0 8.0 0.00 0.15 0.00 26 1009.7
20260509204029 83 106 2.0 8.0 0.00 0.15 0.00 27 1009.7
20260509203529 83 89 5.0 9.0 0.00 0.15 0.00 25 1009.8
20260509203029 83 115 3.0 8.0 0.00 0.15 0.00 25 1009.8
20260509202529 84 119 3.0 5.0 0.00 0.15 0.00 26 1009.9
20260509202029 83 115 2.0 5.0 0.00 0.15 0.00 28 1009.8
20260509201529 84 72 4.0 7.0 0.00 0.15 0.00 29 1009.8
20260509201029 84 119 2.0 4.0 0.00 0.15 0.00 31 1009.9
20260509200529 83 153 1.0 4.0 0.00 0.15 0.00 31 1009.9
20260509200029 83 165 2.0 4.0 0.00 0.15 0.00 28 1009.9
20260509195529 83 104 3.0 7.0 0.00 0.15 0.00 28 1009.9
20260509195029 83 147 2.0 5.0 0.00 0.15 0.00 29 1010.0
20260509194530 83 106 3.0 7.0 0.00 0.15 0.00 28 1010.0
20260509194029 83 138 3.0 7.0 0.00 0.15 0.00 27 1010.1
20260509193529 83 156 3.0 6.0 0.00 0.15 0.00 28 1010.2
20260509193029 83 140 3.0 6.0 0.00 0.15 0.00 29 1010.2
20260509192529 82 115 2.0 4.0 0.00 0.15 0.00 26 1010.2
20260509192029 82 94 4.0 8.0 0.00 0.15 0.00 25 1010.2
20260509191529 82 95 4.0 9.0 0.00 0.15 0.00 28 1010.2
20260509191029 82 172 1.0 5.0 0.00 0.15 0.00 27 1010.3
20260509190529 82 127 2.0 4.0 0.00 0.15 0.00 28 1010.2
20260509190029 82 133 3.0 8.0 0.00 0.15 0.00 29 1010.2
20260509185529 81 116 2.0 5.0 0.00 0.15 0.00 31 1010.2
20260509185029 81 105 3.0 7.0 0.00 0.15 0.00 31 1010.3
20260509184529 82 115 4.0 7.0 0.00 0.15 0.00 32 1010.4
20260509184029 82 70 2.0 5.0 0.00 0.15 0.00 30 1010.4
20260509183529 82 105 2.0 6.0 0.00 0.15 0.00 34 1010.4
20260509183029 82 61 2.0 6.0 0.00 0.15 0.00 34 1010.4
20260509182529 81 62 1.0 3.0 0.00 0.15 0.00 30 1010.4
20260509182029 81 98 2.0 5.0 0.00 0.15 0.00 28 1010.6
20260509181529 81 108 3.0 6.0 0.00 0.15 0.00 34 1010.8
20260509181029 80 182 2.0 4.0 0.00 0.15 0.00 45 1010.8
20260509180529 80 67 2.0 5.0 0.00 0.15 0.00 47 1010.9
20260509180029 80 86 3.0 7.0 0.00 0.15 0.00 42 1010.9
20260509175529 80 106 2.0 6.0 0.00 0.15 0.00 42 1010.9
20260509175029 79 55 3.0 6.0 0.00 0.15 0.00 54 1010.9
20260509174529 79 106 1.0 4.0 0.00 0.15 0.00 51 1011.0
20260509174029 78 0 2.0 6.0 0.00 0.15 0.00 53 1011.2
20260509173529 78 234 1.0 3.0 0.00 0.15 0.00 61 1011.2
20260509173029 78 262 2.0 4.0 0.00 0.15 0.00 60 1011.4
20260509172529 77 324 1.0 4.0 0.00 0.15 0.00 59 1011.5
20260509172029 77 334 3.0 7.0 0.00 0.15 0.00 64 1011.5
20260509171529 77 320 2.0 4.0 0.00 0.15 0.00 64 1011.6
20260509171029 77 340 2.0 4.0 0.00 0.15 0.00 66 1011.6
20260509170529 77 345 1.0 5.0 0.00 0.15 0.00 66 1011.7
20260509170029 76 309 1.0 4.0 0.00 0.15 0.00 68 1011.6
20260509165531 76 358 1.0 4.0 0.00 0.15 0.00 66 1011.5
20260509165029 75 358 1.0 3.0 0.00 0.15 0.00 69 1011.5
20260509164529 74 331 1.0 5.0 0.00 0.15 0.00 68 1011.5
20260509164029 74 349 1.0 5.0 0.00 0.15 0.00 71 1011.5
20260509163529 73 170 1.0 2.0 0.00 0.15 0.00 70 1011.4
20260509163029 73 335 3.0 5.0 0.00 0.15 0.00 70 1011.5
20260509162529 73 323 3.0 6.0 0.00 0.15 0.00 68 1011.5
20260509162029 73 294 0.0 2.0 0.00 0.15 0.00 72 1011.4
20260509161529 73 48 2.0 4.0 0.00 0.15 0.00 72 1011.3
20260509161029 73 43 2.0 4.0 0.00 0.15 0.00 73 1011.3
20260509160529 72 18 0.0 2.0 0.00 0.15 0.00 75 1011.3
20260509160031 71 348 1.0 4.0 0.00 0.15 0.00 75 1011.3
20260509155529 70 1 1.0 5.0 0.00 0.15 0.00 75 1011.3
20260509155032 71 305 3.0 6.0 0.00 0.15 0.00 74 1011.3
20260509154529 70 288 0.0 2.0 0.00 0.15 0.00 78 1011.3
20260509154029 70 309 1.0 3.0 0.00 0.15 0.00 77 1011.3
20260509153529 69 307 0.0 2.0 0.00 0.15 0.00 80 1011.2
20260509153029 69 12 1.0 3.0 0.00 0.15 0.00 78 1011.2
20260509152529 68 306 1.0 2.0 0.00 0.15 0.00 80 1011.2
20260509152029 68 300 1.0 3.0 0.00 0.15 0.00 81 1011.3
20260509151529 68 326 1.0 3.0 0.00 0.15 0.00 81 1011.2
20260509151029 69 321 2.0 5.0 0.00 0.15 0.00 78 1011.1
20260509150529 69 296 1.0 3.0 0.00 0.15 0.00 76 1011.1
20260509150029 69 298 0.0 1.0 0.00 0.15 0.00 78 1011.2
20260509145529 68 132 1.0 4.0 0.00 0.15 0.00 77 1011.2
20260509145029 67 188 1.0 3.0 0.00 0.15 0.00 78 1011.2
20260509144529 67 228 1.0 4.0 0.00 0.15 0.00 82 1011.2
20260509144029 66 226 0.0 3.0 0.00 0.15 0.00 85 1011.2
20260509143529 65 247 0.0 0.0 0.00 0.15 0.00 87 1011.2
20260509143029 64 253 0.0 2.0 0.00 0.15 0.00 87 1011.3
20260509142529 64 283 0.0 2.0 0.00 0.15 0.00 89 1011.3
20260509142029 63 263 0.0 2.0 0.00 0.15 0.00 90 1011.3
20260509141529 63 254 0.0 1.0 0.00 0.15 0.00 91 1011.3
20260509141029 63 172 0.0 2.0 0.00 0.15 0.00 93 1011.2
20260509140529 62 153 0.0 0.0 0.00 0.15 0.00 95 1011.1
20260509140029 61 71 0.0 1.0 0.00 0.15 0.00 95 1011.0
20260509135529 60 102 1.0 2.0 0.00 0.15 0.00 96 1011.0
20260509135029 60 98 0.0 1.0 0.00 0.15 0.00 97 1011.0
20260509134529 59 90 0.0 1.0 0.00 0.15 0.00 97 1011.0
20260509134029 59 50 1.0 2.0 0.00 0.15 0.00 97 1011.0
20260509133530 58 86 2.0 2.0 0.00 0.15 0.00 97 1011.0
20260509133029 58 198 0.0 1.0 0.00 0.15 0.00 97 1010.8
20260509132529 57 281 0.0 0.0 0.00 0.15 0.00 97 1010.8
20260509132029 56 296 0.0 0.0 0.00 0.15 0.00 97 1010.7
20260509131529 56 305 0.0 1.0 0.00 0.15 0.00 97 1010.7
20260509131028 56 251 0.0 2.0 0.00 0.15 0.00 97 1010.6
20260509130528 56 250 0.0 1.0 0.00 0.15 0.00 97 1010.7
20260509130029 55 254 0.0 1.0 0.00 0.15 0.00 97 1010.7
20260509125529 55 229 0.0 0.0 0.00 0.15 0.00 98 1010.7
20260509125029 54 258 0.0 0.0 0.00 0.15 0.00 97 1010.6
20260509124529 54 277 0.0 0.0 0.00 0.15 0.00 97 1010.5
20260509124029 54 300 0.0 0.0 0.00 0.15 0.00 97 1010.3
20260509123529 53 338 0.0 0.0 0.00 0.15 0.00 97 1010.3
20260509123029 53 29 0.0 0.0 0.00 0.15 0.00 97 1010.2
20260509122529 53 207 0.0 1.0 0.00 0.15 0.00 97 1010.1
20260509122029 52 230 0.0 2.0 0.00 0.15 0.00 97 1010.1
20260509121529 52 206 1.0 2.0 0.00 0.15 0.00 97 1010.0
20260509121029 52 233 0.0 0.0 0.00 0.15 0.00 97 1010.0
20260509120529 52 233 0.0 0.0 0.00 0.15 0.00 96 1010.0